Location: Asheville, NC
(35.6000°N, 82.5500°W)
Time: 19:47:42
(UTC-04:00)

KKS-1 - Pass Details

Date: 10 January 2018
Orbit: 637 x 650 km, 98.4° (Epoch: 26 May)

Event Time Altitude Azimuth Distance (km) Brightness Sun altitude
Rises 05:12:10 0° 168° (SSE) 2,929 ? -29.5°
Reaches altitude 10° 05:14:22 10° 169° (S) 2,022 ? -29.1°
Enters shadow 05:15:34 19° 170° (S) 1,536 ? -28.8°
